Regional Weather Roundup
Issued by NWS

Home | Current Version | Previous Version | Graphics & Text | Print | Product List | Glossary On
Versions: 1 2 3 4 5 6 7 8 9 10 11 12 13 14 15 16 17 18 19 20 21 22 23 24 25 26 27 28 29 30 31 32 33 34 35 36 37 38 39 40 41 42 43 44 45 46 47 48 49 50
000
ASUS43 KFSD 220402
RWRSD

WEATHER ROUNDUP FOR SOUTH DAKOTA
NATIONAL WEATHER SERVICE SIOUX FALLS SD
1100 PM CDT TUE OCT 21 2014

NOTE: "FAIR" INDICATES FEW OR NO CLOUDS BELOW 12,000 FEET WITH NO
SIGNIFICANT WEATHER AND/OR OBSTRUCTIONS TO VISIBILITY.


SDZ001>005-009-010-012>017-220500-
NORTHWEST AND NORTH CENTRAL SOUTH DAKOTA

CITY           SKY/WX    TMP DP  RH WIND       PRES   REMARKS
FAITH            N/A     62  48  60 S13       29.71S
MOBRIDGE       PTCLDY    65  44  46 SE15      29.72R
$$

SDZ012>016-024>037-041>051-057-063-072>074-220500-
SOUTHWEST AND SOUTH CENTRAL SOUTH DAKOTA

CITY           SKY/WX    TMP DP  RH WIND       PRES   REMARKS
RAPID CTY ARPT MOCLDY    60  43  53 S7        29.77R
PIERRE         CLEAR     65  43  44 SE18      29.77F
CUSTER         PTCLDY    57  39  51 SW5       29.90S
ELLSWORTH AFB  CLOUDY    63  43  48 W5        29.76S
PHILIP         PTCLDY    62  50  64 S8        29.75R
PINE RIDGE     MOCLDY    64  46  52 S6        29.82S
SPEARFISH      MOCLDY    64  39  39 SW13      29.79R
WINNER         FAIR      67  51  56 S22G31    29.83S
$$

SDZ004>011-016>023-039-040-220500-
NORTHEAST SOUTH DAKOTA

CITY           SKY/WX    TMP DP  RH WIND       PRES   REMARKS
ABERDEEN       CLEAR     64  44  48 S23G29    29.85S
WATERTOWN      CLEAR     57  41  55 S17G24    29.96S
SISSETON         N/A     54  42  64 S14       29.94S
$$

SDZ017-020-022-023-036>040-048>070-220500-
SOUTHEAST SOUTH DAKOTA

CITY           SKY/WX    TMP DP  RH WIND       PRES   REMARKS
SIOUX FALLS    CLEAR     58  42  55 SE17      30.02S
HURON          PTCLDY    63  43  48 S16G26    29.89S
CHAMBERLAIN    CLEAR     63  42  46 SE14      29.85F
MITCHELL       PTCLDY    63  43  48 SE22G28   29.93F
YANKTON        CLEAR     61  39  44 SE14      30.00R
$$

ABBREVIATIONS USED IN REMARKS
   TC - TEMPERATURE IN CELSIUS
  WCI - WIND CHILL INDEX
   HX - HEAT INDEX
  VSB - VISIBILITY




USA.gov is the U.S. government's official web portal to all federal, state and local government web resources and services.